| time (UTC) | temp C | wind direction | speed KPH | gust KPH | rain 1hr cm | rain 24hr cm | rain mn cm | humidity % | barometer mb |
| 20260505130216 | 11 | 227 | 0.0 | 0.0 | 0.00 | 0.00 | 0.00 | 76 | 1016.9 |
| 20260505124706 | 9 | 228 | 0.0 | 0.0 | 0.00 | 0.00 | 0.00 | 87 | 1017.1 |
| 20260505124203 | 9 | 228 | 0.0 | 0.0 | 0.00 | 0.00 | 0.00 | 87 | 1017.2 |
| 20260505123659 | 9 | 228 | 0.0 | 0.0 | 0.00 | 0.00 | 0.00 | 87 | 1017.1 |
| 20260505123156 | 8 | 228 | 0.0 | 0.0 | 0.00 | 0.00 | 0.00 | 87 | 1017.2 |
| 20260505122652 | 8 | 228 | 0.0 | 0.0 | 0.00 | 0.00 | 0.00 | 87 | 1016.8 |
| 20260505122149 | 8 | 228 | 0.0 | 0.0 | 0.00 | 0.00 | 0.00 | 88 | 1017.1 |
| 20260505121646 | 8 | 227 | 0.0 | 0.0 | 0.00 | 0.00 | 0.00 | 89 | 1016.9 |
| 20260505121143 | 8 | 228 | 0.0 | 0.0 | 0.00 | 0.00 | 0.00 | 88 | 1017.1 |
| 20260505120639 | 8 | 228 | 0.0 | 0.0 | 0.00 | 0.00 | 0.00 | 88 | 1017.1 |
| 20260505120135 | 8 | 227 | 0.0 | 0.0 | 0.00 | 0.00 | 0.00 | 87 | 1017.0 |
| 20260505115629 | 8 | 227 | 0.0 | 0.0 | 0.00 | 0.00 | 0.00 | 87 | 1017.0 |
| 20260505115127 | 8 | 227 | 0.0 | 0.0 | 0.00 | 0.00 | 0.00 | 87 | 1016.8 |
| 20260505114624 | 8 | 227 | 0.0 | 0.0 | 0.00 | 0.00 | 0.00 | 86 | 1016.5 |
| 20260505114120 | 8 | 228 | 0.0 | 0.0 | 0.00 | 0.00 | 0.00 | 85 | 1016.4 |
| 20260505113617 | 8 | 227 | 0.0 | 1.6 | 0.00 | 0.00 | 0.00 | 84 | 1016.3 |
| 20260505113114 | 7 | 227 | 0.0 | 0.0 | 0.00 | 0.00 | 0.00 | 86 | 1016.5 |
| 20260505112610 | 7 | 228 | 0.0 | 0.0 | 0.00 | 0.00 | 0.00 | 85 | 1016.5 |
| 20260505112109 | 8 | 227 | 0.0 | 0.0 | 0.00 | 0.00 | 0.00 | 85 | 1016.5 |
| 20260505111608 | 8 | 227 | 0.0 | 0.0 | 0.00 | 0.00 | 0.00 | 84 | 1016.3 |
| 20260505111103 | 8 | 227 | 0.0 | 0.0 | 0.00 | 0.00 | 0.00 | 83 | 1016.3 |
| 20260505110600 | 7 | 227 | 0.0 | 0.0 | 0.00 | 0.00 | 0.00 | 86 | 1016.4 |
| 20260505102033 | 7 | 228 | 0.0 | 0.0 | 0.00 | 0.00 | 0.00 | 85 | 1016.2 |
| 20260505101531 | 8 | 228 | 0.0 | 0.0 | 0.00 | 0.00 | 0.00 | 83 | 1016.0 |
| 20260505101027 | 8 | 228 | 0.0 | 0.0 | 0.00 | 0.00 | 0.00 | 84 | 1016.4 |
| 20260505100524 | 8 | 228 | 0.0 | 0.0 | 0.00 | 0.00 | 0.00 | 84 | 1016.4 |
| 20260505100021 | 8 | 228 | 0.0 | 1.6 | 0.00 | 0.00 | 0.00 | 84 | 1016.2 |
| 20260505095517 | 8 | 228 | 0.0 | 0.0 | 0.00 | 0.00 | 0.00 | 83 | 1016.3 |
| 20260505095014 | 8 | 228 | 0.0 | 1.6 | 0.00 | 0.00 | 0.00 | 83 | 1016.3 |
| 20260505094510 | 8 | 228 | 0.0 | 0.0 | 0.00 | 0.00 | 0.00 | 84 | 1016.6 |
| 20260505094007 | 8 | 228 | 0.0 | 0.0 | 0.00 | 0.00 | 0.00 | 84 | 1016.4 |
| 20260505093503 | 8 | 228 | 0.0 | 0.0 | 0.00 | 0.00 | 0.00 | 85 | 1016.3 |
| 20260505093001 | 8 | 228 | 0.0 | 1.6 | 0.00 | 0.00 | 0.00 | 85 | 1016.4 |
| 20260505092458 | 8 | 229 | 0.0 | 1.6 | 0.00 | 0.00 | 0.00 | 84 | 1016.3 |
| 20260505091955 | 8 | 228 | 0.0 | 1.6 | 0.00 | 0.00 | 0.00 | 84 | 1016.2 |
| 20260505091453 | 8 | 221 | 3.2 | 3.2 | 0.00 | 0.00 | 0.00 | 83 | 1016.2 |
| 20260505090951 | 8 | 235 | 0.0 | 0.0 | 0.00 | 0.00 | 0.00 | 84 | 1015.9 |
| 20260505090449 | 8 | 235 | 0.0 | 0.0 | 0.00 | 0.00 | 0.00 | 84 | 1016.3 |
| 20260505085946 | 8 | 235 | 0.0 | 0.0 | 0.00 | 0.00 | 0.00 | 83 | 1016.2 |
| 20260505085443 | 8 | 237 | 0.0 | 0.0 | 0.00 | 0.00 | 0.00 | 83 | 1016.3 |
| 20260505084942 | 8 | 237 | 0.0 | 0.0 | 0.00 | 0.00 | 0.00 | 83 | 1016.3 |
| 20260505084440 | 8 | 237 | 0.0 | 1.6 | 0.00 | 0.00 | 0.00 | 83 | 1016.2 |
| 20260505083937 | 8 | 237 | 0.0 | 1.6 | 0.00 | 0.00 | 0.00 | 82 | 1016.0 |
| 20260505083434 | 8 | 237 | 0.0 | 1.6 | 0.00 | 0.00 | 0.00 | 82 | 1016.2 |
| 20260505082931 | 8 | 237 | 0.0 | 0.0 | 0.00 | 0.00 | 0.00 | 83 | 1015.9 |
| 20260505082426 | 8 | 237 | 0.0 | 0.0 | 0.00 | 0.00 | 0.00 | 82 | 1016.3 |
| 20260505081924 | 8 | 237 | 0.0 | 0.0 | 0.00 | 0.00 | 0.00 | 84 | 1016.2 |
| 20260505081420 | 8 | 237 | 0.0 | 0.0 | 0.00 | 0.00 | 0.00 | 83 | 1016.2 |
| 20260505080917 | 8 | 238 | 0.0 | 0.0 | 0.00 | 0.00 | 0.00 | 83 | 1016.2 |
| 20260505080413 | 8 | 237 | 1.6 | 1.6 | 0.00 | 0.00 | 0.00 | 83 | 1016.0 |
| 20260505075908 | 8 | 238 | 0.0 | 0.0 | 0.00 | 0.00 | 0.00 | 83 | 1015.9 |
| 20260505075405 | 8 | 238 | 0.0 | 3.2 | 0.00 | 0.00 | 0.00 | 83 | 1015.8 |
| 20260505074903 | 8 | 238 | 0.0 | 1.6 | 0.00 | 0.00 | 0.00 | 83 | 1016.2 |
| 20260505074400 | 8 | 238 | 0.0 | 1.6 | 0.00 | 0.00 | 0.00 | 82 | 1015.8 |
| 20260505073857 | 8 | 239 | 0.0 | 1.6 | 0.00 | 0.00 | 0.00 | 82 | 1015.8 |
| 20260505073355 | 8 | 239 | 1.6 | 1.6 | 0.00 | 0.00 | 0.00 | 82 | 1015.9 |
| 20260505072852 | 8 | 240 | 0.0 | 0.0 | 0.00 | 0.00 | 0.00 | 82 | 1015.8 |
| 20260505072348 | 8 | 240 | 0.0 | 1.6 | 0.00 | 0.00 | 0.00 | 81 | 1015.8 |
| 20260505071844 | 8 | 251 | 1.6 | 1.6 | 0.00 | 0.00 | 0.00 | 82 | 1015.8 |
| 20260505071340 | 8 | 264 | 0.0 | 1.6 | 0.00 | 0.00 | 0.00 | 83 | 1015.8 |
| 20260505070839 | 8 | 264 | 0.0 | 1.6 | 0.00 | 0.00 | 0.00 | 83 | 1015.7 |
| 20260505070335 | 8 | 252 | 0.0 | 0.0 | 0.00 | 0.00 | 0.00 | 83 | 1015.8 |
| 20260505065830 | 8 | 260 | 0.0 | 3.2 | 0.00 | 0.00 | 0.00 | 83 | 1015.8 |
| 20260505065327 | 8 | 246 | 0.0 | 0.0 | 0.00 | 0.00 | 0.00 | 83 | 1015.7 |
| 20260505064824 | 8 | 250 | 0.0 | 0.0 | 0.00 | 0.00 | 0.00 | 83 | 1015.6 |
| 20260505064321 | 8 | 250 | 0.0 | 0.0 | 0.00 | 0.00 | 0.00 | 83 | 1015.6 |
| 20260505063820 | 8 | 251 | 0.0 | 1.6 | 0.00 | 0.00 | 0.00 | 82 | 1015.9 |
| 20260505063315 | 8 | 271 | 0.0 | 1.6 | 0.00 | 0.00 | 0.00 | 83 | 1015.8 |
| 20260505062812 | 8 | 271 | 0.0 | 0.0 | 0.00 | 0.00 | 0.00 | 81 | 1015.8 |
| 20260505062310 | 8 | 271 | 0.0 | 0.0 | 0.00 | 0.00 | 0.00 | 82 | 1015.9 |
| 20260505061806 | 8 | 268 | 0.0 | 1.6 | 0.00 | 0.00 | 0.00 | 82 | 1015.9 |
| 20260505061304 | 8 | 281 | 1.6 | 1.6 | 0.00 | 0.00 | 0.00 | 82 | 1015.9 |
| 20260505060802 | 8 | 244 | 0.0 | 0.0 | 0.00 | 0.00 | 0.00 | 83 | 1016.0 |
| 20260505060258 | 8 | 244 | 0.0 | 0.0 | 0.00 | 0.00 | 0.00 | 83 | 1015.8 |
| 20260505055754 | 8 | 244 | 0.0 | 0.0 | 0.00 | 0.00 | 0.00 | 81 | 1015.7 |
| 20260505055250 | 9 | 243 | 1.6 | 3.2 | 0.00 | 0.00 | 0.00 | 82 | 1015.8 |
| 20260505054747 | 9 | 246 | 1.6 | 1.6 | 0.00 | 0.00 | 0.00 | 81 | 1015.9 |
| 20260505054245 | 9 | 249 | 1.6 | 1.6 | 0.00 | 0.00 | 0.00 | 82 | 1016.0 |
| 20260505053743 | 9 | 249 | 0.0 | 0.0 | 0.00 | 0.00 | 0.00 | 82 | 1016.2 |
| 20260505053240 | 9 | 249 | 0.0 | 0.0 | 0.00 | 0.00 | 0.00 | 83 | 1015.9 |
| 20260505052737 | 9 | 249 | 0.0 | 0.0 | 0.00 | 0.00 | 0.00 | 82 | 1015.9 |
| 20260505052234 | 9 | 249 | 0.0 | 0.0 | 0.00 | 0.00 | 0.00 | 81 | 1015.9 |
| 20260505051731 | 9 | 249 | 0.0 | 0.0 | 0.00 | 0.00 | 0.00 | 82 | 1016.0 |
| 20260505051229 | 9 | 249 | 0.0 | 0.0 | 0.00 | 0.00 | 0.00 | 80 | 1016.0 |
| 20260505050726 | 10 | 249 | 0.0 | 1.6 | 0.00 | 0.00 | 0.00 | 82 | 1015.9 |
| 20260505050224 | 10 | 249 | 0.0 | 0.0 | 0.00 | 0.00 | 0.00 | 80 | 1016.0 |
| 20260505041654 | 10 | 265 | 0.0 | 0.0 | 0.00 | 0.00 | 0.00 | 79 | 1015.8 |
| 20260505041152 | 10 | 240 | 0.0 | 3.2 | 0.00 | 0.00 | 0.00 | 77 | 1015.8 |
| 20260505040648 | 10 | 251 | 0.0 | 0.0 | 0.00 | 0.00 | 0.00 | 81 | 1016.0 |
| 20260505040146 | 10 | 251 | 0.0 | 0.0 | 0.00 | 0.00 | 0.00 | 82 | 1016.0 |
| 20260505035642 | 10 | 252 | 0.0 | 0.0 | 0.00 | 0.00 | 0.00 | 82 | 1015.9 |
| 20260505035138 | 10 | 253 | 0.0 | 0.0 | 0.00 | 0.00 | 0.00 | 82 | 1016.4 |
| 20260505034635 | 10 | 253 | 0.0 | 0.0 | 0.00 | 0.00 | 0.00 | 82 | 1016.4 |
| 20260505034132 | 10 | 254 | 0.0 | 0.0 | 0.00 | 0.00 | 0.00 | 81 | 1016.3 |
| 20260505033628 | 10 | 255 | 0.0 | 0.0 | 0.00 | 0.00 | 0.00 | 81 | 1016.3 |
| 20260505033127 | 10 | 255 | 0.0 | 0.0 | 0.00 | 0.00 | 0.00 | 81 | 1016.3 |
| 20260505032625 | 11 | 255 | 0.0 | 0.0 | 0.00 | 0.00 | 0.00 | 80 | 1016.2 |
| 20260505032121 | 11 | 255 | 0.0 | 0.0 | 0.00 | 0.00 | 0.00 | 80 | 1016.5 |
| 20260505031618 | 11 | 255 | 0.0 | 0.0 | 0.00 | 0.00 | 0.00 | 79 | 1016.5 |
| 20260505031114 | 11 | 255 | 0.0 | 0.0 | 0.00 | 0.00 | 0.00 | 79 | 1016.5 |
| 20260505030611 | 11 | 254 | 0.0 | 0.0 | 0.00 | 0.00 | 0.00 | 78 | 1016.4 |
| 20260505030107 | 11 | 255 | 0.0 | 0.0 | 0.00 | 0.00 | 0.00 | 79 | 1016.5 |
| 20260505025603 | 11 | 255 | 0.0 | 0.0 | 0.00 | 0.00 | 0.00 | 78 | 1016.5 |
| 20260505025102 | 11 | 255 | 0.0 | 0.0 | 0.00 | 0.00 | 0.00 | 78 | 1016.5 |
| 20260505024559 | 12 | 256 | 0.0 | 0.0 | 0.00 | 0.00 | 0.00 | 77 | 1016.5 |
| 20260505024056 | 12 | 248 | 0.0 | 1.6 | 0.00 | 0.00 | 0.00 | 74 | 1016.7 |
| 20260505023553 | 12 | 276 | 1.6 | 3.2 | 0.00 | 0.00 | 0.00 | 75 | 1016.5 |
| 20260505023051 | 12 | 237 | 0.0 | 0.0 | 0.00 | 0.00 | 0.00 | 76 | 1016.3 |
| 20260505022548 | 12 | 236 | 0.0 | 1.6 | 0.00 | 0.00 | 0.00 | 76 | 1016.4 |
| 20260505022045 | 12 | 249 | 0.0 | 0.0 | 0.00 | 0.00 | 0.00 | 78 | 1016.4 |
| 20260505021542 | 12 | 250 | 0.0 | 0.0 | 0.00 | 0.00 | 0.00 | 77 | 1016.3 |
| 20260505021038 | 12 | 249 | 0.0 | 0.0 | 0.00 | 0.00 | 0.00 | 77 | 1016.3 |
| 20260505020538 | 12 | 249 | 0.0 | 0.0 | 0.00 | 0.00 | 0.00 | 77 | 1016.2 |
| 20260505020035 | 12 | 252 | 0.0 | 0.0 | 0.00 | 0.00 | 0.00 | 76 | 1016.2 |
| 20260505015532 | 12 | 242 | 0.0 | 1.6 | 0.00 | 0.00 | 0.00 | 75 | 1016.3 |
| 20260505015029 | 12 | 243 | 0.0 | 0.0 | 0.00 | 0.00 | 0.00 | 76 | 1016.3 |
| 20260505014526 | 13 | 243 | 0.0 | 0.0 | 0.00 | 0.00 | 0.00 | 74 | 1015.9 |
| 20260505014023 | 13 | 241 | 0.0 | 1.6 | 0.00 | 0.00 | 0.00 | 73 | 1015.9 |
| 20260505013520 | 13 | 244 | 0.0 | 0.0 | 0.00 | 0.00 | 0.00 | 75 | 1015.8 |
| 20260505013018 | 13 | 244 | 0.0 | 0.0 | 0.00 | 0.00 | 0.00 | 75 | 1015.8 |
| 20260505012516 | 13 | 244 | 0.0 | 0.0 | 0.00 | 0.00 | 0.00 | 75 | 1015.7 |
| 20260505012012 | 13 | 244 | 0.0 | 0.0 | 0.00 | 0.00 | 0.00 | 74 | 1015.7 |
| 20260505011508 | 14 | 244 | 0.0 | 0.0 | 0.00 | 0.00 | 0.00 | 73 | 1015.4 |
| 20260505011005 | 14 | 244 | 0.0 | 0.0 | 0.00 | 0.00 | 0.00 | 70 | 1015.4 |
| 20260505010500 | 14 | 244 | 0.0 | 0.0 | 0.00 | 0.00 | 0.00 | 71 | 1015.5 |
| 20260505005957 | 15 | 244 | 0.0 | 0.0 | 0.00 | 0.00 | 0.00 | 72 | 1015.4 |
| 20260505005454 | 15 | 244 | 0.0 | 0.0 | 0.00 | 0.00 | 0.00 | 69 | 1015.5 |
| 20260505004952 | 15 | 244 | 0.0 | 1.6 | 0.00 | 0.00 | 0.00 | 67 | 1015.4 |
| 20260505004448 | 15 | 241 | 0.0 | 0.0 | 0.00 | 0.00 | 0.00 | 69 | 1015.3 |
| 20260505003945 | 15 | 244 | 0.0 | 0.0 | 0.00 | 0.00 | 0.00 | 68 | 1015.2 |
| 20260505003442 | 15 | 247 | 0.0 | 0.0 | 0.00 | 0.00 | 0.00 | 68 | 1015.2 |
| 20260505002938 | 16 | 245 | 0.0 | 0.0 | 0.00 | 0.00 | 0.00 | 67 | 1015.3 |
| 20260505002434 | 16 | 245 | 0.0 | 1.6 | 0.00 | 0.00 | 0.00 | 62 | 1015.1 |
| 20260505001933 | 16 | 261 | 0.0 | 0.0 | 0.00 | 0.00 | 0.00 | 62 | 1015.0 |
| 20260505001430 | 17 | 234 | 1.6 | 3.2 | 0.00 | 0.00 | 0.00 | 60 | 1014.8 |
| 20260505000927 | 17 | 254 | 0.0 | 1.6 | 0.00 | 0.00 | 0.00 | 57 | 1014.7 |
| 20260505000427 | 17 | 252 | 0.0 | 4.8 | 0.00 | 0.00 | 0.00 | 54 | 1015.0 |
| 20260504235922 | 18 | 276 | 0.0 | 1.6 | 0.00 | 0.00 | 0.00 | 54 | 1015.2 |
| 20260504235419 | 18 | 223 | 1.6 | 3.2 | 0.00 | 0.00 | 0.00 | 53 | 1014.7 |
| 20260504234915 | 18 | 221 | 3.2 | 3.2 | 0.00 | 0.00 | 0.00 | 50 | 1014.7 |
| 20260504234413 | 18 | 249 | 0.0 | 1.6 | 0.00 | 0.00 | 0.00 | 51 | 1014.6 |
| 20260504233909 | 18 | 288 | 1.6 | 3.2 | 0.00 | 0.00 | 0.00 | 52 | 1014.4 |
| 20260504233405 | 18 | 180 | 4.8 | 4.8 | 0.00 | 0.00 | 0.00 | 49 | 1014.5 |
| 20260504232902 | 18 | 247 | 0.0 | 1.6 | 0.00 | 0.00 | 0.00 | 53 | 1014.4 |
| 20260504232359 | 19 | 261 | 0.0 | 0.0 | 0.00 | 0.00 | 0.00 | 50 | 1014.4 |
| 20260504231856 | 20 | 248 | 0.0 | 1.6 | 0.00 | 0.00 | 0.00 | 48 | 1014.4 |
| 20260504231352 | 20 | 312 | 3.2 | 3.2 | 0.00 | 0.00 | 0.00 | 47 | 1014.4 |
| 20260504230848 | 20 | 245 | 1.6 | 3.2 | 0.00 | 0.00 | 0.00 | 44 | 1014.4 |
| 20260504230346 | 20 | 274 | 1.6 | 3.2 | 0.00 | 0.00 | 0.00 | 40 | 1014.2 |
| 20260504225845 | 20 | 241 | 1.6 | 4.8 | 0.00 | 0.00 | 0.00 | 40 | 1014.3 |
| 20260504225341 | 21 | 173 | 4.8 | 4.8 | 0.00 | 0.00 | 0.00 | 40 | 1014.1 |
| 20260504224838 | 21 | 280 | 0.0 | 0.0 | 0.00 | 0.00 | 0.00 | 40 | 1014.1 |
| 20260504224335 | 22 | 280 | 1.6 | 1.6 | 0.00 | 0.00 | 0.00 | 39 | 1014.2 |
| 20260504223832 | 23 | 277 | 0.0 | 1.6 | 0.00 | 0.00 | 0.00 | 36 | 1014.1 |
| 20260504223327 | 23 | 266 | 1.6 | 6.4 | 0.00 | 0.00 | 0.00 | 28 | 1014.1 |
| 20260504222824 | 23 | 280 | 0.0 | 1.6 | 0.00 | 0.00 | 0.00 | 33 | 1014.1 |
| 20260504222321 | 24 | 287 | 1.6 | 1.6 | 0.00 | 0.00 | 0.00 | 32 | 1014.2 |
| 20260504221820 | 25 | 282 | 3.2 | 3.2 | 0.00 | 0.00 | 0.00 | 29 | 1014.3 |
| 20260504221316 | 24 | 273 | 1.6 | 1.6 | 0.00 | 0.00 | 0.00 | 33 | 1014.1 |
| 20260504220813 | 24 | 284 | 1.6 | 3.2 | 0.00 | 0.00 | 0.00 | 30 | 1014.0 |
| 20260504220309 | 23 | 267 | 3.2 | 4.8 | 0.00 | 0.00 | 0.00 | 30 | 1014.3 |
| 20260504215807 | 23 | 282 | 3.2 | 3.2 | 0.00 | 0.00 | 0.00 | 31 | 1014.2 |
| 20260504215304 | 23 | 301 | 6.4 | 6.4 | 0.00 | 0.00 | 0.00 | 31 | 1014.2 |
| 20260504214759 | 24 | 288 | 3.2 | 4.8 | 0.00 | 0.00 | 0.00 | 30 | 1014.3 |
| 20260504214256 | 25 | 321 | 6.4 | 6.4 | 0.00 | 0.00 | 0.00 | 28 | 1014.1 |
| 20260504213753 | 25 | 283 | 1.6 | 4.8 | 0.00 | 0.00 | 0.00 | 25 | 1014.4 |
| 20260504213249 | 25 | 288 | 1.6 | 3.2 | 0.00 | 0.00 | 0.00 | 29 | 1014.2 |
| 20260504212746 | 25 | 279 | 1.6 | 3.2 | 0.00 | 0.00 | 0.00 | 28 | 1014.3 |
| 20260504212242 | 25 | 253 | 3.2 | 4.8 | 0.00 | 0.00 | 0.00 | 24 | 1014.2 |
| 20260504211740 | 26 | 288 | 1.6 | 3.2 | 0.00 | 0.00 | 0.00 | 22 | 1014.3 |
| 20260504211236 | 25 | 277 | 0.0 | 4.8 | 0.00 | 0.00 | 0.00 | 23 | 1014.2 |
| 20260504210734 | 25 | 280 | 0.0 | 3.2 | 0.00 | 0.00 | 0.00 | 24 | 1014.3 |
| 20260504210231 | 24 | 265 | 0.0 | 3.2 | 0.00 | 0.00 | 0.00 | 24 | 1014.3 |
| 20260504205727 | 24 | 274 | 0.0 | 6.4 | 0.00 | 0.00 | 0.00 | 24 | 1014.4 |
| 20260504205225 | 25 | 252 | 3.2 | 4.8 | 0.00 | 0.00 | 0.00 | 25 | 1014.2 |
| 20260504204723 | 25 | 290 | 3.2 | 3.2 | 0.00 | 0.00 | 0.00 | 24 | 1014.3 |
| 20260504204221 | 25 | 260 | 1.6 | 6.4 | 0.00 | 0.00 | 0.00 | 22 | 1014.6 |
| 20260504203721 | 25 | 269 | 4.8 | 6.4 | 0.00 | 0.00 | 0.00 | 25 | 1014.6 |
| 20260504203218 | 25 | 250 | 1.6 | 4.8 | 0.00 | 0.00 | 0.00 | 25 | 1014.6 |
| 20260504202717 | 24 | 265 | 1.6 | 11.3 | 0.00 | 0.00 | 0.00 | 21 | 1014.7 |
| 20260504202215 | 24 | 300 | 3.2 | 4.8 | 0.00 | 0.00 | 0.00 | 27 | 1014.6 |
| 20260504201712 | 23 | 302 | 4.8 | 4.8 | 0.00 | 0.00 | 0.00 | 24 | 1014.8 |
| 20260504201209 | 24 | 296 | 4.8 | 12.9 | 0.00 | 0.00 | 0.00 | 26 | 1014.7 |
| 20260504200707 | 23 | 298 | 1.6 | 3.2 | 0.00 | 0.00 | 0.00 | 28 | 1014.8 |
| 20260504200203 | 24 | 297 | 4.8 | 6.4 | 0.00 | 0.00 | 0.00 | 26 | 1015.0 |
| 20260504195659 | 23 | 277 | 1.6 | 6.4 | 0.00 | 0.00 | 0.00 | 30 | 1015.1 |
| 20260504195155 | 24 | 284 | 1.6 | 3.2 | 0.00 | 0.00 | 0.00 | 29 | 1014.7 |
| 20260504194652 | 24 | 292 | 3.2 | 3.2 | 0.00 | 0.00 | 0.00 | 29 | 1015.1 |
| 20260504194148 | 24 | 358 | 1.6 | 3.2 | 0.00 | 0.00 | 0.00 | 30 | 1015.1 |
| 20260504193645 | 24 | 280 | 0.0 | 3.2 | 0.00 | 0.00 | 0.00 | 28 | 1015.1 |
| 20260504193143 | 23 | 279 | 1.6 | 1.6 | 0.00 | 0.00 | 0.00 | 29 | 1015.3 |
| 20260504192640 | 23 | 278 | 1.6 | 1.6 | 0.00 | 0.00 | 0.00 | 28 | 1015.4 |
| 20260504192138 | 24 | 299 | 3.2 | 4.8 | 0.00 | 0.00 | 0.00 | 32 | 1015.5 |
| 20260504191636 | 24 | 7 | 4.8 | 4.8 | 0.00 | 0.00 | 0.00 | 29 | 1015.7 |
| 20260504191132 | 23 | 280 | 0.0 | 1.6 | 0.00 | 0.00 | 0.00 | 29 | 1015.9 |
| 20260504190628 | 23 | 296 | 3.2 | 4.8 | 0.00 | 0.00 | 0.00 | 29 | 1015.9 |
| 20260504190125 | 23 | 280 | 1.6 | 3.2 | 0.00 | 0.00 | 0.00 | 30 | 1015.7 |
| 20260504185622 | 23 | 278 | 3.2 | 3.2 | 0.00 | 0.00 | 0.00 | 31 | 1015.9 |
| 20260504185118 | 23 | 277 | 3.2 | 3.2 | 0.00 | 0.00 | 0.00 | 30 | 1015.9 |
| 20260504184614 | 23 | 286 | 1.6 | 3.2 | 0.00 | 0.00 | 0.00 | 31 | 1016.2 |
| 20260504184109 | 22 | 204 | 3.2 | 3.2 | 0.00 | 0.00 | 0.00 | 32 | 1016.3 |
| 20260504183607 | 22 | 278 | 1.6 | 4.8 | 0.00 | 0.00 | 0.00 | 34 | 1016.3 |
| 20260504183105 | 22 | 318 | 4.8 | 6.4 | 0.00 | 0.00 | 0.00 | 35 | 1016.2 |
| 20260504182601 | 22 | 290 | 3.2 | 3.2 | 0.00 | 0.00 | 0.00 | 34 | 1016.2 |
| 20260504182059 | 22 | 285 | 3.2 | 3.2 | 0.00 | 0.00 | 0.00 | 35 | 1016.3 |
| 20260504181556 | 21 | 275 | 0.0 | 3.2 | 0.00 | 0.00 | 0.00 | 39 | 1016.2 |
| 20260504181054 | 21 | 286 | 3.2 | 9.7 | 0.00 | 0.00 | 0.00 | 38 | 1016.3 |
| 20260504180553 | 21 | 290 | 3.2 | 4.8 | 0.00 | 0.00 | 0.00 | 37 | 1016.4 |
| 20260504180051 | 21 | 272 | 1.6 | 3.2 | 0.00 | 0.00 | 0.00 | 38 | 1016.4 |
| 20260504175548 | 21 | 301 | 4.8 | 6.4 | 0.00 | 0.00 | 0.00 | 39 | 1016.5 |
| 20260504175045 | 21 | 294 | 3.2 | 6.4 | 0.00 | 0.00 | 0.00 | 39 | 1016.5 |
| 20260504174543 | 21 | 315 | 4.8 | 12.9 | 0.00 | 0.00 | 0.00 | 40 | 1016.5 |
| 20260504174039 | 21 | 306 | 1.6 | 3.2 | 0.00 | 0.00 | 0.00 | 39 | 1016.6 |
| 20260504173536 | 21 | 310 | 4.8 | 4.8 | 0.00 | 0.00 | 0.00 | 40 | 1016.7 |
| 20260504173033 | 21 | 279 | 3.2 | 4.8 | 0.00 | 0.00 | 0.00 | 39 | 1016.8 |
| 20260504172530 | 21 | 295 | 4.8 | 6.4 | 0.00 | 0.00 | 0.00 | 40 | 1016.7 |
| 20260504172026 | 20 | 259 | 1.6 | 6.4 | 0.00 | 0.00 | 0.00 | 43 | 1016.9 |
| 20260504171523 | 20 | 259 | 0.0 | 1.6 | 0.00 | 0.00 | 0.00 | 42 | 1017.0 |
| 20260504171020 | 20 | 256 | 0.0 | 4.8 | 0.00 | 0.00 | 0.00 | 41 | 1016.8 |
| 20260504170516 | 20 | 244 | 1.6 | 3.2 | 0.00 | 0.00 | 0.00 | 41 | 1016.9 |
| 20260504160436 | 17 | 200 | 1.6 | 3.2 | 0.00 | 0.00 | 0.00 | 49 | 1017.9 |
| 20260504150906 | 15 | 238 | 3.2 | 4.8 | 0.00 | 0.00 | 0.00 | 51 | 1018.5 |
| 20260504150402 | 15 | 255 | 1.6 | 1.6 | 0.00 | 0.00 | 0.00 | 57 | 1018.5 |
| 20260504141332 | 10 | 239 | 0.0 | 1.6 | 0.00 | 0.00 | 0.00 | 75 | 1019.2 |
| 20260504140829 | 10 | 239 | 1.6 | 1.6 | 0.00 | 0.00 | 0.00 | 73 | 1019.1 |
| 20260504140324 | 9 | 239 | 0.0 | 1.6 | 0.00 | 0.00 | 0.00 | 71 | 1019.0 |